Miscellaneous Local Product
Issued by NWS North Platte, NE

Home | Current Version | Previous Version | Graphics & Text | Print | Product List | Glossary On
Versions: 1 2 3 4 5 6 7 8 9 10 11 12 13 14 15 16 17 18 19 20 21 22 23 24 25 26 27 28 29 30 31 32 33 34 35 36 37 38 39 40 41 42 43 44 45 46 47 48 49 50
558
AXUS43 KLBF 062310
MISLBF


WESTERN AND NORTH CENTRAL NEBRASKA HOURLY WEATHER ROUNDUP
NATIONAL WEATHER SERVICE NORTH PLATTE NE
500 PM CST TUE DEC 06 2016

NOTE: "FAIR" INDICATES FEW OR NO CLOUDS BELOW 12,000 FEET WITH NO
SIGNIFICANT WEATHER AND/OR OBSTRUCTIONS TO VISIBILITY.

NOTE: STATIONS NOT REPORTING VARIABLES SUCH AS SKY/WEATHER OR
PRESSURE ARE PROVIDED BY RAWS AND APRS NETWORKS AND ARE NOT UNDER
NATIONAL WEATHER SERVICE QUALITY CONTROL.

...OBSERVATIONS IN AND NEAR THE EASTERN PANHANDLE OF NEBRASKA...

CITY           SKY/WX    TMP DP  RH WIND       PRES   REMARKS
PINE RIDGE     CLEAR     15   6  67 CALM      29.98R
CHADRON        CLEAR     17   2  51 W14       29.99S WCI   3
ALLIANCE       CLOUDY    20   3  48 N13       29.93R WCI   7
SIDNEY         CLOUDY    25  -3  29 N5        29.92S WCI  19
CRESCENT LAKE    N/A     22   2  42 N6          N/A  WCI  15
$$

...OBSERVATIONS IN NORTHERN NEBRASKA AND FAR SOUTHERN SOUTH DAKOTA...

CITY           SKY/WX    TMP DP  RH WIND       PRES   REMARKS
WINNER         FAIR      18   5  57 NW16      30.03R WCI   3
VALENTINE      CLEAR     19   4  51 NW15      30.01R WCI   5
THEDFORD       CLEAR     26   4  38 N6        29.99R WCI  20
AINSWORTH      CLEAR     21   6  51 NW15G23   29.99R WCI   8
O`NEILL        CLEAR     23   7  49 NW14G20   30.00S WCI  11
ORD            CLEAR     27   2  34 NW12      30.01R WCI  17
BROKEN BOW     CLEAR     28   6  39 N9        30.00R WCI  19
VALENTINE NWR    N/A     24   0  34 NW16G25     N/A  WCI  11
BUTTE            N/A     18   8  64 NW15G24     N/A  WCI   4
HALSEY           N/A     29   0  28 NW7G16      N/A  WCI  22
CHAMBERS         N/A     24   4  43 N5G12       N/A  WCI  18
EWING            N/A     24   9  53 W9          N/A  WCI  14
$$

...OBSERVATIONS IN SOUTHWEST NEBRASKA AND FAR NORTHEAST COLORADO...

CITY           SKY/WX    TMP DP  RH WIND       PRES   REMARKS
HOLYOKE        FAIR      32  -4  21 CALM      29.94F
IMPERIAL       MOCLDY    28   1  31 CALM      29.97F
OGALLALA       CLEAR     26   2  37 CALM      29.97S
NORTH PLATTE   CLEAR     28   4  35 NW6       29.99R WCI  22
MCCOOK         CLEAR     31   2  29 W3        30.01S
LEXINGTON      CLEAR     31   6  34 W7        30.01R WCI  24
STAPLETON        N/A     26   4  39 CALM        N/A
GOTHENBURG       N/A     31   3  30 W3          N/A
CALLAWAY         N/A     28   3  34 NW7         N/A  WCI  21
$$

...OBSERVATIONS IN CENTRAL LINCOLN COUNTY AREA...

CITY           SKY/WX    TMP DP  RH WIND       PRES   REMARKS
N.P. AIRPORT   CLEAR     28   4  35 NW6       29.99R WCI  22
N.P. DOWNTOWN    N/A     30   6  35 CALM        N/A
N.P. SOUTHEAST   N/A     30   4  33 CALM        N/A
N.P. HILLCREST   N/A     29   4  33 NW7         N/A  WCI  22
$$

...SOME OBSERVATIONS FROM AROUND THE REGION...

CITY           SKY/WX    TMP DP  RH WIND       PRES   REMARKS
LARAMIE        LGT SNOW  12   6  77 SE15      29.70S WCI  -4
CHEYENNE       CLOUDY    19  -2  39 S16       29.80S WCI   4
DENVER         CLOUDY    25   4  40 S18       29.82R WCI  11
AKRON          CLOUDY    25 -13  18 SE7       29.89S WCI  17
SCOTTSBLUFF    CLOUDY    23   1  38 N8        29.94R WCI  14
RAPID CITY     CLEAR     13   1  59 N16G23    30.00R WCI  -3
BISMARCK       CLOUDY     8   4  83 NW16G33   29.95S WCI -10
PIERRE         CLOUDY    13   4  67 NW33G40   30.01S WCI  -9
SIOUX FALLS    PTCLDY    18  10  71 W23G32    29.92R WCI   0
OMAHA          CLEAR     32  10  40 W14       30.03R WCI  22
GRAND ISLAND   CLEAR     29   7  39 NW8       30.04R WCI  21
KANSAS CITY    PTCLDY    33  11  39 W5        30.07R WCI  29
WICHITA        MOCLDY    37  13  37 N9        30.10R WCI  30
OKLAHOMA CITY  CLOUDY    42  21  43 N12       30.07R
DALLAS         CLOUDY    49  38  65 N12       30.04R
AMARILLO       CLOUDY    36   6  28 SE9       30.01S WCI  29
DODGE CITY     MOCLDY    32   8  36 SE5       30.05R WCI  27
HAYS           MOCLDY    35   5  28 CALM      30.06S
GOODLAND       CLEAR     27  -3  27 S6        29.96R WCI  20
$$




USA.gov is the U.S. government's official web portal to all federal, state and local government web resources and services.